Rbgn^[z[y[W
メイン
   新天体発見情報
     Comet C/2020 S8 (Lemmon)
投稿するにはまず登録を

スレッド表示 | 古いものから 前のトピック | 次のトピック | 下へ
投稿者 スレッド
佐藤裕久
投稿日時: 2020-11-2 22:51
モデレータ
登録日: 2005-6-12
居住地: 日本
投稿: 2585
オンライン
Comet C/2020 S8 (Lemmon)

9月18日、Mt Lemmonサーベイのコースに1.5-m 反射望遠鏡で得た画像から小惑星状の天体が発見
された。
佐藤英貴氏(東京都文京区,9月21.1日UT, 60秒露出24枚のスタック, 0.43-m f/6.8 アストログラフ, 
Mayhill近郊, NM, 遠隔操作: 恒星状の頭部が見え、p.a. 90°に向かって5"の尾の気配がある。
5".7の円形範囲で測定した光度は20.0等であった)ら、他のCCD位置観測者によって彗星状と観測さ
れた。

彗星機能の報告は次の通り:

OC   Date        Reporter           Coma    Tail    PA          Exposures
G96  2020-09-04 K. Wierzchos        12"       
H06  2020-09-21 H. Sato              4"      5"     90            24x60s
I52  2020-09-26 D. Rankin            6"
I52  2020-10-05 D. Rankin            6"      5"     45
I52  2020-10-09 G. J. Leonard        3"     10"     60            16x30s
I52  2020-10-10 D. Rankin            5"    
G37  2020-10-11 J. Bauer            1".7     6"     50-60      
I52  2020-10-21 G. J. Leonard        2"      6"     40            12x30s

発見位置は次のとおり、

     2020 UT             R.A. (2000) Decl.       Mag.
     Sept.18.12123   16 22 08.34   +45 15 43.5   20.1
          18.13259   16 22 07.94   +45 15 26.9   21.0
          18.14534   16 22 07.55   +45 15 08.1   21.3
          18.15030   16 22 07.49   +45 15 01.9   20.8

MPCの楕円軌道要素、位置推算表は次のとおり、

Orbital elements:
    C/2020 S8 (Lemmon)                                                          
Epoch 2021 Apr. 16.0 TT = JDT 2459320.5                                         
T 2021 Apr. 10.93431 TT                                 Rudenko                 
q   2.3638919            (2000.0)            P               Q                  
z  +0.0036848      Peri.  160.33271     -0.81634628     -0.42923014             
 +/-0.0000184      Node    24.05091     -0.56860764     +0.47991309             
e   0.9912896      Incl.  108.51860     +0.10131192     -0.76514372             
From 78 observations 2020 July 29-Oct. 21, mean residual 0".5.                  
                                                                                
    C/2020 S8 (Lemmon)                                                          
Epoch 2020 Dec. 17.0 TT = JDT 2459200.5                                         
T 2021 Apr. 10.92777 TT                                 Rudenko                 
q   2.3639208            (2000.0)            P               Q                  
z  +0.0037094      Peri.  160.32999     -0.81632127     -0.42926382             
 +/-0.0000184      Node    24.05177     -0.56863719     +0.47986801             
e   0.9912312      Incl.  108.51748     +0.10134755     -0.76515310             
From 78 observations 2020 July 29-Oct. 21, mean residual 0".5.                  
                                                                                
Ephemeris:
Date    TT    R. A. (2000) Decl.     Delta      r    Elong.  Phase   m1
2020 09 27    16 19 09.0 +41 49 36   3.3744  3.1749    70.0    17.3  20.2
...
2020 10 12    16 18 26.3 +36 25 34   3.4087  3.0736    62.2    16.7  20.0
...
2020 10 20    16 19 42.3 +33 47 51   3.4236  3.0211    58.3    16.3  20.0
...
2020 10 26    16 21 12.6 +31 57 07   3.4314  2.9825    55.5    15.9  19.9
2020 10 27    16 21 30.0 +31 39 19   3.4324  2.9761    55.0    15.9  19.9
2020 10 28    16 21 48.0 +31 21 41   3.4332  2.9698    54.6    15.8  19.9
...
2020 11 03    16 23 47.6 +29 39 47   3.4359  2.9320    52.0    15.5  19.9
...
2020 11 11    16 26 53.4 +27 34 12   3.4319  2.8829    49.1    15.1  19.8
...
2020 11 26    16 33 34.5 +24 10 06   3.3959  2.7949    45.5    14.6  19.6

(MPEC 2020-U244、CBET 4876)


スレッド表示 | 古いものから 前のトピック | 次のトピック | トップ

投稿するにはまず登録を
 
© 1999 Tsutomu Seki.